HS3MXC-1 Weather Reports


time (UTC)temp
C
wind
direction
speed
KPH
gust
KPH
rain 1hr
cm
rain 24hr
cm
rain mn
cm
humidity
%
barometer
mb
20260509150232 32 0 0.0 0.0 0.00 0.00 0.00 66 996.3
20260509145726 32 0 0.0 0.0 0.00 0.00 0.00 66 996.3
20260509145220 32 0 0.0 0.0 0.00 0.00 0.00 66 996.4
20260509144206 32 0 0.0 0.0 0.00 0.00 0.00 66 996.3
20260509143152 32 0 0.0 0.0 0.00 0.00 0.00 66 996.1
20260509142646 32 0 0.0 0.0 0.00 0.00 0.00 66 996.2
20260509142139 32 0 0.0 0.0 0.00 0.00 0.00 66 996.1
20260509141632 32 0 0.0 0.0 0.00 0.00 0.00 66 996.2
20260509141126 32 0 0.0 0.0 0.00 0.00 0.00 66 996.1
20260509135607 32 0 0.0 0.0 0.00 0.00 0.00 65 995.9
20260509135100 32 0 0.0 0.0 0.00 0.00 0.00 65 995.8
20260509134553 32 0 0.0 0.0 0.00 0.00 0.00 65 995.8
20260509134047 32 0 0.0 0.0 0.00 0.00 0.00 65 995.8
20260509133540 32 0 0.0 0.0 0.00 0.00 0.00 65 995.8
20260509133034 32 0 0.0 0.0 0.00 0.00 0.00 65 995.7
20260509132527 32 0 0.0 0.0 0.00 0.00 0.00 65 995.7
20260509132021 32 0 0.0 0.0 0.00 0.00 0.00 65 995.5
20260509131514 32 0 0.0 0.0 0.00 0.00 0.00 65 995.5
20260509131008 32 0 0.0 0.0 0.00 0.00 0.00 65 995.5
20260509130501 32 0 0.0 0.0 0.00 0.00 0.00 65 995.4
20260509125954 32 0 0.0 0.0 0.00 0.00 0.00 65 995.4
20260509125448 32 0 0.0 0.0 0.00 0.00 0.00 64 995.3
20260509124941 32 0 0.0 0.0 0.00 0.00 0.00 64 995.3
20260509124433 33 0 0.0 0.0 0.00 0.00 0.00 64 995.1
20260509123927 32 0 0.0 0.0 0.00 0.00 0.00 64 995.1
20260509123420 32 0 0.0 0.0 0.00 0.00 0.00 65 995.0
20260509122913 33 0 0.0 0.0 0.00 0.00 0.00 63 995.0
20260509122407 33 0 0.0 0.0 0.00 0.00 0.00 63 994.9
20260509121900 33 0 0.0 0.0 0.00 0.00 0.00 62 994.8
20260509121354 33 0 0.0 0.0 0.00 0.00 0.00 62 994.7
20260509120847 33 0 0.0 0.0 0.00 0.00 0.00 62 994.6
20260509120341 33 0 0.0 0.0 0.00 0.00 0.00 62 994.5
20260509115834 33 0 0.0 0.0 0.00 0.00 0.00 62 994.3
20260509115328 33 0 0.0 0.0 0.00 0.00 0.00 62 994.2
20260509114821 33 0 0.0 0.0 0.00 0.00 0.00 62 994.2
20260509114315 33 0 0.0 0.0 0.00 0.00 0.00 62 994.2
20260509113808 33 0 0.0 0.0 0.00 0.00 0.00 62 994.1
20260509113301 33 0 0.0 0.0 0.00 0.00 0.00 62 994.2
20260509112754 33 0 0.0 0.0 0.00 0.00 0.00 62 994.2
20260509112248 33 0 0.0 0.0 0.00 0.00 0.00 62 994.1
20260509111742 33 0 0.0 0.0 0.00 0.00 0.00 62 993.9
20260509110220 33 0 0.0 0.0 0.00 0.00 0.00 61 993.7
20260509105714 33 0 0.0 0.0 0.00 0.00 0.00 61 993.7
20260509105208 33 0 0.0 0.0 0.00 0.00 0.00 61 993.5
20260509104700 33 0 0.0 0.0 0.00 0.00 0.00 61 993.5
20260509104154 33 0 0.0 0.0 0.00 0.00 0.00 61 993.4
20260509103647 33 0 0.0 0.0 0.00 0.00 0.00 60 993.3
20260509103140 33 0 0.0 0.0 0.00 0.00 0.00 60 993.2
20260509102633 33 0 0.0 0.0 0.00 0.00 0.00 60 993.2
20260509101621 33 0 0.0 0.0 0.00 0.00 0.00 59 993.2
20260509100602 33 0 0.0 0.0 0.00 0.00 0.00 51 993.0
20260509100055 33 0 0.0 0.0 0.00 0.00 0.00 52 993.0
20260509095042 33 0 0.0 0.0 0.00 0.00 0.00 52 993.1
20260509094535 33 0 0.0 0.0 0.00 0.00 0.00 52 993.1
20260509094028 33 0 0.0 0.0 0.00 0.00 0.00 52 993.2
20260509093521 33 0 0.0 0.0 0.00 0.00 0.00 52 993.1
20260509093014 34 0 0.0 0.0 0.00 0.00 0.00 53 993.1
20260509092508 34 0 0.0 0.0 0.00 0.00 0.00 53 993.2
20260509092001 34 0 0.0 0.0 0.00 0.00 0.00 53 993.3
20260509090948 33 0 0.0 0.0 0.00 0.00 0.00 53 993.5
20260509085935 33 0 0.0 0.0 0.00 0.00 0.00 54 993.4
20260509085428 33 0 0.0 0.0 0.00 0.00 0.00 54 993.3
20260509084922 33 0 0.0 0.0 0.00 0.00 0.00 54 993.4
20260509084415 33 0 0.0 0.0 0.00 0.00 0.00 54 993.4
20260509083908 33 0 0.0 0.0 0.00 0.00 0.00 54 993.4
20260509083402 33 0 0.0 0.0 0.00 0.00 0.00 53 993.4
20260509082855 33 0 0.0 0.0 0.00 0.00 0.00 53 993.4
20260509081842 33 0 0.0 0.0 0.00 0.00 0.00 56 993.5
20260509081335 33 0 0.0 0.0 0.00 0.00 0.00 56 993.6
20260509080829 33 0 0.0 0.0 0.00 0.00 0.00 56 993.8
20260509080323 33 0 0.0 0.0 0.00 0.00 0.00 57 993.8
20260509075816 33 0 0.0 0.0 0.00 0.00 0.00 56 994.1
20260509075310 33 0 0.0 0.0 0.00 0.00 0.00 56 994.3
20260509074804 33 0 0.0 0.0 0.00 0.00 0.00 55 994.4
20260509074257 33 0 0.0 0.0 0.00 0.00 0.00 56 994.5
20260509073751 33 0 0.0 0.0 0.00 0.00 0.00 56 994.6
20260509073245 33 0 0.0 0.0 0.00 0.00 0.00 58 994.7
20260509072738 33 0 0.0 0.0 0.00 0.00 0.00 57 994.8
20260509072232 33 0 0.0 0.0 0.00 0.00 0.00 58 994.9
20260509071726 33 0 0.0 0.0 0.00 0.00 0.00 57 994.9
20260509071219 33 0 0.0 0.0 0.00 0.00 0.00 58 995.0
20260509070713 33 0 0.0 0.0 0.00 0.00 0.00 57 995.1
20260509065658 33 0 0.0 0.0 0.00 0.00 0.00 60 995.2
20260509064645 33 0 0.0 0.0 0.00 0.00 0.00 60 995.4
20260509064138 33 0 0.0 0.0 0.00 0.00 0.00 59 995.5
20260509063630 33 0 0.0 0.0 0.00 0.00 0.00 60 995.6
20260509063123 33 0 0.0 0.0 0.00 0.00 0.00 60 995.7
20260509062617 33 0 0.0 0.0 0.00 0.00 0.00 61 995.7
20260509061057 33 0 0.0 0.0 0.00 0.00 0.00 60 996.0
20260509060550 33 0 0.0 0.0 0.00 0.00 0.00 59 996.2
20260509060044 33 0 0.0 0.0 0.00 0.00 0.00 60 996.3
20260509055537 33 0 0.0 0.0 0.00 0.00 0.00 60 996.3
20260509054015 33 0 0.0 0.0 0.00 0.00 0.00 60 996.7
20260509053509 32 0 0.0 0.0 0.00 0.00 0.00 61 996.8
20260509053001 32 0 0.0 0.0 0.00 0.00 0.00 60 996.8
20260509052455 32 0 0.0 0.0 0.00 0.00 0.00 61 997.0
20260509051948 32 0 0.0 0.0 0.00 0.00 0.00 61 997.1
20260509051442 32 0 0.0 0.0 0.00 0.00 0.00 61 997.2
20260509050429 32 0 0.0 0.0 0.00 0.00 0.00 61 997.4
20260509045923 32 0 0.0 0.0 0.00 0.00 0.00 62 997.5
20260509045415 32 0 0.0 0.0 0.00 0.00 0.00 61 997.6
20260509044909 32 0 0.0 0.0 0.00 0.00 0.00 63 997.6
20260509044403 32 0 0.0 0.0 0.00 0.00 0.00 64 997.7
20260509043856 31 0 0.0 0.0 0.00 0.00 0.00 64 997.8
20260509043350 31 0 0.0 0.0 0.00 0.00 0.00 65 997.9
20260509042844 31 0 0.0 0.0 0.00 0.00 0.00 65 997.9
20260509042338 31 0 0.0 0.0 0.00 0.00 0.00 65 998.0
20260509041832 31 0 0.0 0.0 0.00 0.00 0.00 65 998.0
20260509041326 31 0 0.0 0.0 0.00 0.00 0.00 64 998.0
20260509040819 31 0 0.0 0.0 0.00 0.00 0.00 65 998.0
20260509040313 31 0 0.0 0.0 0.00 0.00 0.00 66 998.1
20260509035807 31 0 0.0 0.0 0.00 0.00 0.00 67 998.2
20260509035300 31 0 0.0 0.0 0.00 0.00 0.00 67 998.2
20260509034247 30 0 0.0 0.0 0.00 0.00 0.00 67 998.3
20260509033741 30 0 0.0 0.0 0.00 0.00 0.00 67 998.4
20260509033235 30 0 0.0 0.0 0.00 0.00 0.00 67 998.5
20260509032727 30 0 0.0 0.0 0.00 0.00 0.00 67 998.6
20260509032222 30 0 0.0 0.0 0.00 0.00 0.00 67 998.5
20260509031715 30 0 0.0 0.0 0.00 0.00 0.00 67 998.6
20260509031209 30 0 0.0 0.0 0.00 0.00 0.00 68 998.6
20260509030701 30 0 0.0 0.0 0.00 0.00 0.00 67 998.7
20260509025649 30 0 0.0 0.0 0.00 0.00 0.00 67 998.7
20260509024637 30 0 0.0 0.0 0.00 0.00 0.00 66 998.7
20260509024131 30 0 0.0 0.0 0.00 0.00 0.00 67 998.7
20260509022609 30 0 0.0 0.0 0.00 0.00 0.00 66 998.8
20260509022103 30 0 0.0 0.0 0.00 0.00 0.00 66 998.8
20260509021556 30 0 0.0 0.0 0.00 0.00 0.00 67 998.9
20260509021050 30 0 0.0 0.0 0.00 0.00 0.00 67 998.8
20260509020544 30 0 0.0 0.0 0.00 0.00 0.00 67 998.8
20260509015531 30 0 0.0 0.0 0.00 0.00 0.00 67 998.8
20260509015024 29 0 0.0 0.0 0.00 0.00 0.00 67 998.9
20260509014519 29 0 0.0 0.0 0.00 0.00 0.00 68 998.8
20260509014012 29 0 0.0 0.0 0.00 0.00 0.00 68 998.8
20260509013505 29 0 0.0 0.0 0.00 0.00 0.00 68 998.8
20260509012959 29 0 0.0 0.0 0.00 0.00 0.00 68 998.7
20260509012453 29 0 0.0 0.0 0.00 0.00 0.00 68 998.7
20260509011946 29 0 0.0 0.0 0.00 0.00 0.00 68 998.8
20260509011440 29 0 0.0 0.0 0.00 0.00 0.00 67 998.7
20260509010934 30 0 0.0 0.0 0.00 0.00 0.00 67 998.7
20260509010427 29 0 0.0 0.0 0.00 0.00 0.00 67 998.7
20260509005921 29 0 0.0 0.0 0.00 0.00 0.00 67 998.6
20260509005414 29 0 0.0 0.0 0.00 0.00 0.00 67 998.6
20260509004907 29 0 0.0 0.0 0.00 0.00 0.00 68 998.6
20260509004400 29 0 0.0 0.0 0.00 0.00 0.00 68 998.5
20260509003854 29 0 0.0 0.0 0.00 0.00 0.00 68 998.5
20260509003347 29 0 0.0 0.0 0.00 0.00 0.00 68 998.4
20260509002840 29 0 0.0 0.0 0.00 0.00 0.00 68 998.4
20260509002334 29 0 0.0 0.0 0.00 0.00 0.00 68 998.5
20260509001827 29 0 0.0 0.0 0.00 0.00 0.00 68 998.4
20260509001321 29 0 0.0 0.0 0.00 0.00 0.00 68 998.2
20260509000815 29 0 0.0 0.0 0.00 0.00 0.00 68 998.1
20260509000310 29 0 0.0 0.0 0.00 0.00 0.00 68 998.1
20260508235803 29 0 0.0 0.0 0.00 0.00 0.00 68 998.1
20260508235256 29 0 0.0 0.0 0.00 0.00 0.00 69 998.0
20260508234750 29 0 0.0 0.0 0.00 0.00 0.00 69 998.1
20260508234245 29 0 0.0 0.0 0.00 0.00 0.00 69 998.1
20260508233738 29 0 0.0 0.0 0.00 0.00 0.00 69 997.9
20260508233232 29 0 0.0 0.0 0.00 0.00 0.00 69 997.9
20260508232726 29 0 0.0 0.0 0.00 0.00 0.00 69 997.8
20260508231712 29 0 0.0 0.0 0.00 0.00 0.00 68 997.6
20260508231206 29 0 0.0 0.0 0.00 0.00 0.00 69 997.6
20260508230700 29 0 0.0 0.0 0.00 0.00 0.00 68 997.4
20260508230153 29 0 0.0 0.0 0.00 0.00 0.00 68 997.5
20260508225646 29 0 0.0 0.0 0.00 0.00 0.00 68 997.3
20260508225139 29 0 0.0 0.0 0.00 0.00 0.00 68 997.2
20260508224127 29 0 0.0 0.0 0.00 0.00 0.00 68 997.1
20260508223620 29 0 0.0 0.0 0.00 0.00 0.00 68 997.1
20260508223113 29 0 0.0 0.0 0.00 0.00 0.00 68 997.1
20260508222607 29 0 0.0 0.0 0.00 0.00 0.00 68 997.0
20260508222059 29 0 0.0 0.0 0.00 0.00 0.00 68 997.0
20260508221552 30 0 0.0 0.0 0.00 0.00 0.00 68 997.0
20260508221045 30 0 0.0 0.0 0.00 0.00 0.00 68 997.0
20260508220539 30 0 0.0 0.0 0.00 0.00 0.00 68 996.9
20260508220033 30 0 0.0 0.0 0.00 0.00 0.00 68 996.9
20260508215526 30 0 0.0 0.0 0.00 0.00 0.00 68 997.0
20260508215019 30 0 0.0 0.0 0.00 0.00 0.00 68 996.9
20260508214512 30 0 0.0 0.0 0.00 0.00 0.00 68 996.9
20260508214003 30 0 0.0 0.0 0.00 0.00 0.00 68 996.7
20260508213456 30 0 0.0 0.0 0.00 0.00 0.00 68 996.6
20260508212948 30 0 0.0 0.0 0.00 0.00 0.00 68 996.5
20260508212441 30 0 0.0 0.0 0.00 0.00 0.00 68 996.3
20260508211934 30 0 0.0 0.0 0.00 0.00 0.00 68 996.2
20260508211428 30 0 0.0 0.0 0.00 0.00 0.00 68 996.2
20260508210922 30 0 0.0 0.0 0.00 0.00 0.00 68 996.2
20260508210416 30 0 0.0 0.0 0.00 0.00 0.00 68 996.0
20260508205909 30 0 0.0 0.0 0.00 0.00 0.00 68 996.1
20260508205402 30 0 0.0 0.0 0.00 0.00 0.00 68 996.1
20260508204855 30 0 0.0 0.0 0.00 0.00 0.00 68 996.1
20260508204349 30 0 0.0 0.0 0.00 0.00 0.00 68 996.0
20260508203842 30 0 0.0 0.0 0.00 0.00 0.00 68 996.0
20260508203335 30 0 0.0 0.0 0.00 0.00 0.00 68 996.0
20260508202829 30 0 0.0 0.0 0.00 0.00 0.00 68 996.0
20260508202322 30 0 0.0 0.0 0.00 0.00 0.00 68 996.1
20260508201815 30 0 0.0 0.0 0.00 0.00 0.00 68 996.1
20260508201309 30 0 0.0 0.0 0.00 0.00 0.00 68 996.1
20260508200802 30 0 0.0 0.0 0.00 0.00 0.00 68 996.0
20260508200253 30 0 0.0 0.0 0.00 0.00 0.00 68 996.0
20260508195746 30 0 0.0 0.0 0.00 0.00 0.00 67 996.0
20260508195239 30 0 0.0 0.0 0.00 0.00 0.00 68 996.1
20260508194732 30 0 0.0 0.0 0.00 0.00 0.00 68 996.1
20260508194226 30 0 0.0 0.0 0.00 0.00 0.00 67 996.0
20260508193719 30 0 0.0 0.0 0.00 0.00 0.00 67 996.0
20260508193212 30 0 0.0 0.0 0.00 0.00 0.00 68 995.9
20260508192706 30 0 0.0 0.0 0.00 0.00 0.00 67 995.9
20260508192200 30 0 0.0 0.0 0.00 0.00 0.00 67 995.9
20260508191651 30 0 0.0 0.0 0.00 0.00 0.00 68 996.0
20260508191144 30 0 0.0 0.0 0.00 0.00 0.00 67 996.0
20260508190637 30 0 0.0 0.0 0.00 0.00 0.00 67 996.0
20260508190130 30 0 0.0 0.0 0.00 0.00 0.00 68 996.0
20260508185623 30 0 0.0 0.0 0.00 0.00 0.00 67 996.1
20260508185115 30 0 0.0 0.0 0.00 0.00 0.00 67 996.1
20260508184606 30 0 0.0 0.0 0.00 0.00 0.00 67 996.3
20260508184055 30 0 0.0 0.0 0.00 0.00 0.00 67 996.3
20260508183548 30 0 0.0 0.0 0.00 0.00 0.00 67 996.3
20260508183041 30 0 0.0 0.0 0.00 0.00 0.00 67 996.4
20260508182534 30 0 0.0 0.0 0.00 0.00 0.00 67 996.4
20260508182028 30 0 0.0 0.0 0.00 0.00 0.00 67 996.5
20260508181521 30 0 0.0 0.0 0.00 0.00 0.00 67 996.5
20260508181015 30 0 0.0 0.0 0.00 0.00 0.00 67 996.6
20260508180508 30 0 0.0 0.0 0.00 0.00 0.00 67 996.5
20260508180002 30 0 0.0 0.0 0.00 0.00 0.00 67 996.6
20260508175455 30 0 0.0 0.0 0.00 0.00 0.00 67 996.6
20260508174949 30 0 0.0 0.0 0.00 0.00 0.00 67 996.5
20260508174440 30 0 0.0 0.0 0.00 0.00 0.00 67 996.4
20260508173934 30 0 0.0 0.0 0.00 0.00 0.00 67 996.4
20260508173424 30 0 0.0 0.0 0.00 0.00 0.00 67 996.4
20260508172918 30 0 0.0 0.0 0.00 0.00 0.00 67 996.4
20260508172409 30 0 0.0 0.0 0.00 0.00 0.00 67 996.5
20260508171901 30 0 0.0 0.0 0.00 0.00 0.00 67 996.5
20260508171352 31 0 0.0 0.0 0.00 0.00 0.00 67 996.6
20260508170843 30 0 0.0 0.0 0.00 0.00 0.00 67 996.6
20260508170335 30 0 0.0 0.0 0.00 0.00 0.00 67 996.7
20260508165827 31 0 0.0 0.0 0.00 0.00 0.00 67 996.8
20260508165319 31 0 0.0 0.0 0.00 0.00 0.00 67 996.8
20260508164811 31 0 0.0 0.0 0.00 0.00 0.00 67 996.9
20260508164303 31 0 0.0 0.0 0.00 0.00 0.00 67 996.9
20260508163757 30 0 0.0 0.0 0.00 0.00 0.00 67 997.0
20260508163250 31 0 0.0 0.0 0.00 0.00 0.00 67 997.0
20260508162743 31 0 0.0 0.0 0.00 0.00 0.00 67 997.0
20260508162235 31 0 0.0 0.0 0.00 0.00 0.00 67 997.1
20260508161727 31 0 0.0 0.0 0.00 0.00 0.00 67 996.9
20260508161219 31 0 0.0 0.0 0.00 0.00 0.00 67 997.0
20260508160712 31 0 0.0 0.0 0.00 0.00 0.00 67 997.0
20260508160206 31 0 0.0 0.0 0.00 0.00 0.00 67 997.0
20260508155659 31 0 0.0 0.0 0.00 0.00 0.00 67 997.0
20260508155152 31 0 0.0 0.0 0.00 0.00 0.00 68 997.1
20260508154644 31 0 0.0 0.0 0.00 0.00 0.00 68 997.0
20260508154136 31 0 0.0 0.0 0.00 0.00 0.00 67 997.0
20260508152607 31 0 0.0 0.0 0.00 0.00 0.00 67 997.0
20260508152101 31 0 0.0 0.0 0.00 0.00 0.00 68 996.9
20260508151554 31 0 0.0 0.0 0.00 0.00 0.00 68 996.9
20260508150539 31 0 0.0 0.0 0.00 0.00 0.00 67 996.9